Location: *
(45.5667°S, 177.5167°W)
Time: 15:42:45
(UTC+00:00)

Cosmos 2322 Rocket - Pass Details

Date: 29 May 2022
Orbit: 833 x 850 km, 71.0° (Epoch: 28 June)

Event Time Altitude Azimuth Distance (km) Brightness Sun altitude
Rises 05:42:39 0° 200° (SSW) 3,451 5.4 -14.4°
Reaches altitude 10° 05:45:34 10° 187° (S) 2,507 4.6 -14.9°
Maximum altitude 05:50:20 26° 131° (SE) 1,626 3.2 -15.7°
Enters shadow 05:51:30 24° 112° (ESE) 1,688 3.2 -15.9°
